Location: Unspecified
(0.0000°N, 0.0000°E)
Time: 17:50:04
(UTC+00:00)

STARLINK 1063 - Pass Details

Date: 21 January 2020
Orbit: 548 x 551 km, 53.0° (Epoch: 17 January)

Event Time Altitude Azimuth Distance (km) Brightness Sun altitude
Rises 04:02:21 0° 178° (S) 2,713 7.5 -30.0°
Reaches altitude 10° 04:06:24 10° 139° (SE) 1,816 7.0 -29.1°
Maximum altitude 04:07:22 11° 125° (SE) 1,772 7.1 -28.9°
Drops below altitude 10° 04:08:19 10° 112° (ESE) 1,814 7.2 -28.7°
Sets 04:12:20 0° 73° (ENE) 2,703 7.9 -27.7°
